Weather observations for the past three days for
Jacksonville Municipal Airport
Imperial (Metric)
Date Time (cdt) Wind (mph) Vis. (mi.) Weather Sky Cond. Temperature (ºF) Relative Humidity Wind Chill (°F) Heat Index (°F) Pressure Precipitation (in)
Air Dwpt 6 hour altimeter (in) sea level (mb) 1 hr 3 hr 6 hr
Max. Min.
12 19:55 E 3 10.00 Fair CLR 80.6 72.9 77% 85 30.1 0.0
12 19:35 E 5 10.00 Fair CLR 81.7 72.5 74% 87 30.09 0.0
12 19:15 E 5 10.00 Partly Cloudy SCT036 SCT041 82.9 71.8 69% 88 30.09 0.0
12 18:55 SE 5 10.00 Partly Cloudy SCT042 83.3 71.4 85.5 81.5 68% 88 30.08 0.0
12 18:35 Calm 10.00 Mostly Cloudy SCT035 BKN044 83.8 71.2 66% 89 30.08 0.0
12 18:15 Calm 10.00 Mostly Cloudy BKN040 83.5 71.4 67% 89 30.08 0.0
12 17:55 Calm 10.00 Mostly Cloudy SCT035 BKN042 84.2 70.9 64% 89 30.08 0.0
12 17:35 Calm 10.00 Mostly Cloudy SCT002 BKN041 BKN046 83.7 70.9 66% 88 30.07 0.0
12 17:15 Calm 10.00 Mostly Cloudy SCT035 BKN042 84 70.3 64% 89 30.08 0.0
12 16:55 Calm 10.00 Partly Cloudy SCT037 83.3 70.7 66% 88 30.08 0.0
12 16:35 NE 5 10.00 Mostly Cloudy BKN037 84.4 70 62% 89 30.08 0.0
12 16:15 Calm 10.00 Overcast BKN037 OVC095 85.1 69.4 60% 89 30.09 0.0
12 15:55 Calm 10.00 Mostly Cloudy SCT035 BKN095 84 68.5 60% 87 30.09 0.0
12 15:35 Calm 10.00 Partly Cloudy SCT035 SCT095 84.9 69.3 60% 89 30.09 0.0
12 15:15 Calm 10.00 Fair CLR 84.2 68.5 59% 88 30.08 0.0
12 14:55 Calm 10.00 Partly Cloudy SCT036 83.7 67.3 58% 86 30.09 0.0
12 14:35 Calm 10.00 Partly Cloudy SCT036 83.8 68.5 60% 87 30.09 0.0
12 14:15 E 6 10.00 Partly Cloudy SCT002 83.5 69.3 62% 87 30.1 0.0
12 13:55 NE 3 10.00 Partly Cloudy SCT002 83.1 67.3 59% 86 30.1 0.0
12 13:35 Calm 10.00 Fair CLR 82.8 67.8 61% 86 30.1 0.0
12 13:15 E 3 10.00 Fair CLR 82.4 68.7 63% 86 30.11 0.0
12 12:55 Calm 10.00 Fair CLR 82 67.3 82.2 64.4 61% 85 30.12 0.0
12 12:35 Calm 10.00 Fair CLR 81.9 67.1 61% 84 30.12 0.0
12 12:15 E 6 7.00 Fair CLR 81.1 68.2 65% 84 30.13 0.0
12 11:55 E 6 10.00 Fair CLR 81.7 68.9 65% 85 30.13 0.0
12 11:35 Calm 10.00 Fair CLR 80.2 68.2 67% 83 30.13 0.0
12 11:15 Calm 10.00 Fair CLR 79.5 66.7 65% 82 30.13 0.0
12 10:55 E 5 10.00 Fair CLR 79.5 68.5 69% 82 30.13 0.0
12 10:35 NE 3 10.00 Fair CLR 78.4 68.5 72% 81 30.13 0.0
12 10:15 E 3 10.00 Fair CLR 77.7 69.1 75% 80 30.13 0.0
12 09:55 Calm 10.00 Fair CLR 76.3 74.1 93% 76 30.12 0.0
12 09:35 Calm 10.00 Fair CLR 74.8 73.9 97% 30.13 0.0
12 09:15 Calm 10.00 Fair CLR 74.3 73.6 98% 30.13 0.0
12 08:55 Calm 10.00 Partly Cloudy SCT002 72.7 72.3 99% 30.13 0.0
12 08:35 Calm 10.00 Partly Cloudy SCT004 71.4 70.9 98% 30.12 0.0
12 08:15 Calm 7.00 Fair CLR 69.8 69.3 98% 30.13 0.0
12 07:55 Calm 7.00 Fair CLR 68.9 68.2 98% 30.12 0.0
12 07:35 Calm 7.00 Fair CLR 67.3 66.7 98% 30.11 0.0
12 07:15 Calm 5.00 Fair CLR 65.7 65.3 99% 30.1 0.0
12 06:55 Calm 7.00 Fair CLR 64.4 63.9 67.6 61 98% 30.09 0.0
12 06:35 Calm 4.00 Fair CLR 63.1 62.6 98% 30.09 0.0
12 06:15 Calm 1.50 Mostly Cloudy BKN002 62.4 61.9 98% 30.08 0.0
12 05:55 Calm 0.25 Overcast OVC002 61 60.6 99% 30.09 0.0
12 05:35 Calm 0.75 Mostly Cloudy BKN002 62.1 61.7 99% 30.08 0.0
12 05:15 Calm 4.00 Fair CLR 62.4 61.7 98% 30.07 0.0
12 04:55 Calm 5.00 Fair CLR 62.1 61.7 99% 30.07 0.0
12 04:35 Calm 5.00 Fair CLR 63 62.4 98% 30.06 0.0
12 04:15 Calm 5.00 Fair CLR 62.8 62.2 98% 30.05 0.0
12 01:35 Calm 7.00 Fair CLR 64.9 64.4 98% 30.07 0.0
12 01:15 NE 3 10.00 Fair CLR 66.9 66.4 98% 30.07 0.0
12 00:55 Calm 7.00 Fair CLR 67.1 66.4 79 66 98% 30.08 0.0
12 00:35 Calm 10.00 Fair CLR 66 65.5 98% 30.08 0.0
12 00:15 Calm 10.00 Fair CLR 67.6 67.1 98% 30.08 0.0
11 23:55 Calm 10.00 Fair CLR 68 67.5 98% 30.08 0.0
11 23:35 NE 3 10.00 Fair CLR 68.4 67.8 98% 30.08 0.0
11 23:15 Calm 10.00 Fair CLR 69.1 68.5 98% 30.07 0.0
11 22:55 Calm 10.00 Fair CLR 69.6 68.9 98% 30.07 0.0
11 22:35 NE 3 10.00 Fair CLR 70.7 70.2 98% 30.07 0.0
11 22:15 NE 3 10.00 Fair CLR 71.4 68 89% 30.07 0.0
11 21:55 NE 3 10.00 Fair CLR 71.8 68 88% 30.06 0.0
11 21:35 N 5 10.00 Fair CLR 72.5 66.6 82% 30.06 0.0
11 21:15 N 5 10.00 Fair CLR 71.2 70.2 96% 30.05 0.0
11 20:55 N 3 10.00 Fair CLR 73.4 66.4 79% 30.05 0.0
11 20:35 Calm 10.00 Fair CLR 74.7 66.9 77% 30.05 0.0
11 20:15 Calm 10.00 Fair CLR 76.1 68 76% 77 30.04 0.0
11 19:55 Calm 10.00 Fair CLR 76.5 69.4 79% 78 30.04 0.0
11 19:35 Calm 7.00 Fair CLR 77.5 69.3 76% 79 30.04 0.0
11 19:15 W 3 10.00 Fair CLR 78.8 67.5 68% 81 30.03 0.0
11 18:55 NW 3 10.00 Fair CLR 79.2 66.6 81.7 78.8 65% 81 30.03 0.0
11 18:35 W 5 10.00 Partly Cloudy SCT039 SCT047 79.7 67.1 65% 82 30.02 0.0
11 18:15 Calm 10.00 Partly Cloudy SCT037 80.6 65.5 60% 83 30.02 0.0
11 17:55 W 5 10.00 Fair CLR 80.4 66.2 62% 83 30.03 0.0
11 17:35 W 3 10.00 Fair CLR 81 64.9 58% 83 30.03 0.0
11 17:15 W 3 10.00 Fair CLR 80.8 66 61% 83 30.03 0.0
11 16:55 Calm 10.00 Fair CLR 81 64.2 57% 83 30.03 0.0
11 16:35 Calm 10.00 Fair CLR 80.4 64.4 58% 82 30.04 0.0
11 16:15 Calm 10.00 Fair CLR 80.8 64.9 59% 83 30.04 0.0
11 15:55 W 3 10.00 Partly Cloudy SCT038 SCT047 SCT050 81.5 65.3 58% 83 30.04 0.0
11 15:35 Calm 10.00 Mostly Cloudy SCT038 BKN047 BKN060 81 64.2 57% 83 30.04 0.0
11 15:15 Calm 10.00 Partly Cloudy SCT036 SCT050 SCT060 80.2 65.7 61% 82 30.04 0.0
11 14:55 Calm 10.00 Fair CLR 80.4 65.1 60% 82 30.04 0.0
11 14:35 Calm 10.00 Partly Cloudy SCT034 79.9 64.2 59% 82 30.05 0.0
11 14:15 Calm 10.00 Fair CLR 79.3 64.9 62% 81 30.05 0.0
11 13:55 Calm 10.00 Fair CLR 79.7 62.2 55% 81 30.05 0.0
11 13:35 Calm 10.00 Fair CLR 79.3 61.9 55% 81 30.05 0.0
11 13:15 Calm 10.00 Fair CLR 79.3 63.7 59% 81 30.06 0.0
11 12:55 Calm 10.00 Fair CLR 79.2 63 79.2 64.2 58% 81 30.06 0.0
11 12:35 Calm 10.00 Fair CLR 77.7 61.9 58% 79 30.06 0.0
11 12:15 Calm 10.00 Fair CLR 77.5 63.3 62% 79 30.07 0.0
11 11:55 Calm 10.00 Fair CLR 76.3 63.3 64% 78 30.07 0.0
11 11:35 Calm 10.00 Fair CLR 75.9 61 60% 78 30.07 0.0
11 11:15 Calm 10.00 Fair CLR 75.2 63.1 66% 77 30.08 0.0
11 10:55 Calm 10.00 Partly Cloudy SCT065 74.3 64.6 72% 30.08 0.0
11 10:35 Calm 10.00 Partly Cloudy SCT065 73.6 68.2 83% 30.07 0.0
11 10:15 Calm 10.00 Partly Cloudy SCT065 72.3 68.9 89% 30.08 0.0
11 09:55 Calm 10.00 Partly Cloudy SCT065 71.6 68 88% 30.08 0.0
11 09:35 Calm 10.00 Partly Cloudy SCT065 71.2 68.4 91% 30.07 0.0
11 09:15 Calm 10.00 Mostly Cloudy SCT009 BKN060 BKN075 70 69.3 98% 30.07 0.0
11 08:55 Calm 10.00 Overcast SCT007 BKN060 OVC085 69.4 68.9 98% 30.08 0.0
11 08:35 NW 3 10.00 Mostly Cloudy SCT007 BKN060 BKN070 68.5 68 98% 30.08 0.0
11 08:15 Calm 10.00 Mostly Cloudy BKN060 BKN070 68 67.5 98% 30.07 0.0
11 07:55 W 5 10.00 Mostly Cloudy SCT060 BKN070 67.1 66.4 98% 30.06 0.0
11 07:35 W 3 10.00 Partly Cloudy SCT060 SCT080 65.8 65.3 98% 30.06 0.0
11 07:15 Calm 10.00 Partly Cloudy SCT080 65.3 64.8 98% 30.05 0.0
11 06:55 Calm 7.00 Fair CLR 64 63.5 64.2 61.5 98% 30.05 0.0
11 06:35 Calm 5.00 Fair CLR 63 62.6 99% 30.04 0.0
11 06:15 S 3 3.00 Fair CLR 61.7 61.2 98% 30.03 0.0
11 05:55 Calm 4.00 Fair CLR 61.7 61 98% 30.03 0.0
11 05:35 S 3 7.00 Fair CLR 61.7 61.2 98% 30.02 0.0
11 05:15 W 3 4.00 Fair CLR 61.9 61.3 98% 30.02 0.0
11 04:55 NW 3 3.00 Fair CLR 62.6 62.1 98% 30.02 0.0
11 04:35 W 3 7.00 Partly Cloudy SCT070 SCT085 63.7 63.1 98% 30.02 0.0
11 04:15 SW 6 5.00 Mostly Cloudy SCT070 BKN085 64 63.5 98% 30.02 0.0
11 03:55 Calm 1.75 Sky Obscured VV007 62.2 61.7 98% 30.02 0.0
11 03:35 Calm 1.25 Sky Obscured VV007 63.1 62.6 98% 30.01 0.0
11 03:15 Calm 3.00 Fair CLR 62.6 62.2 99% 30.01 0.0
11 02:55 SW 5 3.00 Fair CLR 63 62.6 99% 30.01 0.0
11 02:35 S 3 3.00 Fair CLR 63 62.4 98% 30.01 0.0
11 02:15 S 3 2.50 Fair CLR 63.3 62.8 98% 30.01 0.0
11 01:55 Calm 5.00 Fair CLR 63.5 62.8 98% 30.01 0.0
11 01:35 Calm 5.00 Fair CLR 63.5 63 98% 30.01 0.0
11 01:15 SW 3 5.00 Fair CLR 63.5 62.8 98% 30 0.0
11 00:55 Calm 5.00 Fair CLR 63.9 63.3 77.9 63.5 98% 30.01 0.0
11 00:35 Calm 7.00 Fair CLR 64.6 63.9 98% 30 0.0
11 00:15 Calm 10.00 Fair CLR 64.9 64.4 98% 30.01 0.0
10 23:55 Calm 10.00 Fair CLR 66.2 65.7 98% 30.01 0.0
10 23:35 Calm 10.00 Fair CLR 66.6 66 98% 30.01 0.0
10 23:15 Calm 10.00 Fair CLR 67.6 67.1 98% 30.01 0.0
10 22:55 Calm 10.00 Fair CLR 68 67.5 98% 30.01 0.0
10 22:35 N 7 10.00 Partly Cloudy SCT050 SCT065 68 67.3 98% 30.01 0.0
10 22:15 W 5 10.00 Mostly Cloudy BKN120 68.7 68 98% 30 0.0
10 21:55 W 6 10.00 Mostly Cloudy BKN120 69.3 68.5 98% 29.99 0.0
10 21:15 SW 10 10.00 Fair CLR 70.7 63.3 78% 29.98 0.0
10 20:55 SW 14 10.00 Fair CLR 71.8 61.3 70% 29.98 0.0
10 20:35 W 9 10.00 Partly Cloudy SCT060 71.4 62.2 73% 29.98 0.0
10 20:15 SW 7 10.00 Fair CLR 71.6 63 74% 29.97 0.0
10 19:55 S 7 10.00 Partly Cloudy SCT120 72.1 64.6 77% 29.96 0.0
10 19:35 W 6 10.00 Mostly Cloudy SCT060 SCT070 BKN120 73.2 62.8 70% 29.97 0.0
10 19:15 W 12 10.00 Thunderstorm in Vicinity SCT038 SCT048 BKN120 73.9 62.4 67% 29.98 0.0
10 18:55 SW 6 10.00 Fair CLR 77.9 67.5 83.7 77.9 70% 80 29.96 0.0
10 18:35 SW 7 10.00 Fair CLR 79 67.1 67% 81 29.96 0.0
10 18:15 SW 6 10.00 Fair CLR 79.9 66.6 64% 82 29.96 0.0
10 17:55 SW 8 10.00 Fair CLR 82.6 67.1 60% 85 29.95 0.0
10 17:35 W 8 10.00 Fair CLR 82.9 67.6 60% 86 29.95 0.0
10 17:15 SW 6 10.00 Fair CLR 82.6 66.6 59% 85 29.95 0.0
10 16:55 W 8 10.00 Fair CLR 83.3 66.6 57% 86 29.94 0.0
10 16:35 W 6 10.00 Partly Cloudy SCT042 83.5 68.5 61% 87 29.94 0.0
10 16:15 W 8 10.00 Partly Cloudy SCT042 SCT060 83.3 66.9 58% 86 29.95 0.0
10 15:55 W 7 10.00 Partly Cloudy SCT046 SCT065 SCT070 83.3 67.5 59% 86 29.95 0.0
10 15:35 W 8 10.00 Partly Cloudy SCT065 SCT080 82 68.7 64% 85 29.95 0.0
10 15:15 W 8 10.00 Partly Cloudy SCT060 SCT080 83.5 68.2 60% 87 29.96 0.0
10 14:55 W 8 10.00 Fair CLR 82.6 66 57% 85 29.96 0.0
10 14:35 NW 8 10.00 Partly Cloudy SCT041 SCT049 82.9 68.4 62% 86 29.97 0.0
10 14:15 W 8 G 17 10.00 Partly Cloudy SCT039 SCT060 82.6 68.4 62% 86 29.97 0.0
10 13:55 NW 10 10.00 Partly Cloudy SCT039 SCT060 81.7 67.8 63% 84 29.97 0.0
10 13:35 W 12 10.00 Mostly Cloudy BKN037 BKN050 BKN060 81.5 68.2 64% 84 29.97 0.0
10 13:15 W 12 10.00 Mostly Cloudy SCT037 BKN044 BKN050 80.2 68.2 67% 83 29.97 0.0
10 12:55 W 10 G 17 10.00 Mostly Cloudy SCT036 BKN042 BKN049 80.2 68.4 81 66.7 67% 83 29.97 0.0
10 12:35 W 10 10.00 Mostly Cloudy BKN034 BKN040 BKN046 80.2 68.5 68% 83 29.97 0.0
10 12:15 W 10 10.00 Partly Cloudy SCT032 80.4 70.5 72% 84 29.97 0.0
10 11:55 W 10 10.00 Fair CLR 79.7 69.3 71% 83 29.97 0.0
10 11:35 W 10 10.00 Fair CLR 78.8 69.3 73% 81 29.97 0.0
10 11:15 W 10 10.00 Fair CLR 78.6 73.2 84% 82 29.96 0.0
10 10:55 W 9 10.00 Fair CLR 77.2 73.8 89% 79 29.96 0.0
10 10:35 W 10 10.00 Fair CLR 76.6 74.5 93% 77 29.97 0.0
10 10:15 W 10 10.00 Fair CLR 75.7 73.8 94% 75 29.97 0.0
10 09:55 W 8 10.00 Fair CLR 74.7 73.4 96% 29.97 0.0
10 09:35 W 9 10.00 Fair CLR 74.3 73.6 98% 29.96 0.0
10 09:15 W 8 10.00 Fair CLR 72.9 72.3 98% 29.96 0.0
10 08:55 W 7 10.00 Fair CLR 70.3 69.8 98% 29.95 0.0
10 08:35 W 7 10.00 Partly Cloudy SCT006 69.8 69.1 98% 29.95 0.0
10 08:15 W 6 7.00 Partly Cloudy SCT006 68.9 68.4 98% 29.95 0.0
10 07:55 W 7 7.00 Partly Cloudy SCT006 68.7 68.2 98% 29.95 0.0
10 07:35 W 7 5.00 Mostly Cloudy BKN004 68 67.3 98% 29.94 0.0
10 07:15 W 6 4.00 Mostly Cloudy BKN004 67.5 67.1 99% 29.93 0.0
10 06:55 W 5 4.00 Partly Cloudy SCT006 66.7 66.2 66.7 63.7 98% 29.93 0.0 0.01
10 06:35 W 7 4.00 Partly Cloudy SCT006 66.2 65.7 98% 29.92 0.0
10 06:15 W 6 5.00 Partly Cloudy SCT042 65.5 64.9 98% 29.92 0.0
10 05:55 W 6 5.00 Fair CLR 64.6 64.4 99% 29.91 0.0
10 05:35 W 6 4.00 Fair CLR 64.4 63.9 98% 29.9 0.0
10 05:15 SW 6 5.00 Fair CLR 64.4 63.9 98% 29.91 0.0
10 04:55 SW 6 5.00 Fair CLR 64.8 64.4 99% 29.9 0.0 0.01
10 04:35 SW 6 7.00 Mostly Cloudy SCT022 SCT055 BKN070 64.9 64.4 98% 29.89 0.0 0.01
10 04:15 W 5 7.00 Overcast SCT008 SCT014 OVC022 65.8 65.3 98% 29.89 0.0 0.01
10 03:55 NE 3 7.00 Mostly Cloudy SCT004 SCT008 BKN014 65.3 64.8 98% 29.89 0.0
10 03:35 N 3 7.00 Partly Cloudy SCT047 SCT120 64.2 63.7 98% 29.89 0.0
10 03:15 Calm 7.00 Mostly Cloudy BKN120 64.9 64.4 98% 29.88 0.0
10 02:55 W 3 7.00 Partly Cloudy SCT110 63.9 63.5 99% 29.87 0.0
10 02:35 W 5 7.00 Partly Cloudy SCT011 SCT110 63.7 63.1 98% 29.87 0.0
10 02:15 Calm 7.00 Mostly Cloudy BKN110 64.4 63.9 98% 29.87 0.0
10 01:55 W 3 7.00 Partly Cloudy SCT110 64.6 64.2 99% 29.87 0.0
10 01:35 Calm 7.00 Partly Cloudy SCT032 64.4 63.9 98% 29.88 0.0
10 01:15 NW 3 7.00 Partly Cloudy SCT021 64.2 63.7 98% 29.87 0.0
10 00:35 W 7 7.00 Fair CLR 64.9 64.4 98% 29.87 0.0
10 00:15 NW 3 7.00 Partly Cloudy SCT022 65.3 64.8 98% 29.87 0.0
09 23:55 W 3 7.00 Fair CLR 65.5 64.9 98% 29.87 0.0
09 23:35 NW 3 7.00 Fair CLR 65.5 64.9 98% 29.86 0.0
09 23:15 NW 3 7.00 Partly Cloudy SCT120 65.7 65.3 99% 29.86 0.0
09 22:55 N 5 7.00 Partly Cloudy SCT022 SCT120 65.8 65.3 98% 29.86 0.0 0.01
09 22:35 NW 3 7.00 Mostly Cloudy SCT022 SCT065 BKN110 65.7 65.3 99% 29.86 0.0 0.01
09 22:15 Calm 7.00 Mostly Cloudy BKN110 65.3 64.8 98% 29.86 0.0
09 21:55 NW 3 5.00 Mostly Cloudy SCT100 BKN120 65.3 64.6 98% 29.86 0.0 0.03 0.1
09 21:35 N 6 5.00 Overcast BKN100 OVC120 65.3 64.6 98% 29.85 0.0 0.02
09 21:15 NW 8 10.00 Mostly Cloudy BKN100 65.3 64.6 98% 29.85 0.0 0.02
09 20:55 NW 9 4.00 Mostly Cloudy SCT080 BKN110 65.8 65.3 98% 29.85 0.0 0.06
09 20:35 NW 10 2.50 Overcast BKN070 OVC085 67.1 66.6 98% 29.85 0.0 0.04
09 20:15 NW 9 7.00 Overcast BKN070 OVC095 67.6 67.1 98% 29.85 0.0 0.01
Date Time (cdt) Wind (mph) Vis. (mi.) Weather Sky Cond. Air Dwpt Max. Min. Relative Humidity Wind Chill (°F) Heat Index (°F) altimeter (in) sea level (mb) 1 hr 3 hr 6 hr
6 hour
Temperature (ºF) Pressure Precipitation (in)